星链-1713 (STARLINK-1713 )

导读 | 豆包AI

STARLINK-1713是美国SpaceX公司于2020年9月3日发射的星链(Starlink)V1.0批次卫星,属于星链第一代低轨互联网星座的一员,运行在近地轨道,配备相控阵天线与氪离子推进器,为全球尤其是基础设施匮乏地区提供高速低延迟宽带互联网服务,助力星链实现全球覆盖的组网目标,目前已进入设计寿命末期,退役后将受控坠入大气层完全烧毁,减少空间碎片。

基本信息
目录编号:
46360
目录名称:
STARLINK-1713
国际标识:
2020-062AM
轨道中心:
EARTH
卫星名称:
星链-1713
卫星全名:
星链-1713 (STARLINK-1713 )
卫星状态:
已陨落 最后检测时间 2025-10-10
发射日期:
2020-09-03 UTC
国别 :
美国 (US)
星等 :
--
轨道信息
数据来源 国际轨道数据
星历时间: 2025-10-10T15:37:13+0800
轨道信息已过期175天
半长轴: 6547.262km
偏心率: 0.0005943
轨道倾角: 53.027°
近地点辐角 248.055°
升交点赤经 221.248°
平近点角 111.987°
近地点: 165.235km
远地点: 173.019km
周期: 87.872分钟
每日圈数: 16.387518
详细信息
固有亮度:
5
最大亮度:
2.5
卫星平台:
Starlink V1.0
覆盖范围:
全球
运营商:
太空探索技术公司
运营商所在国:
美国
制造商(研发单位):
太空探索技术公司
制造商所在国:
美国
使用方式:
暂无
卫星简介
星链(Starlink)计划是由太空探索技术公司(SpaceX)提出的一个巨型低轨卫星互联网星座项目,计划在2019年至2024年间在太空搭建由约1.2万颗卫星组成的“星链”网络,其中1584颗将部署在地球上空550千米处的近地轨道,并从2020年开始工作。该卫星仍在工作。